User: anonymous   Login
Location: Austin
(30.3000°N, 97.7500°W)
Time: 06:16:29
(UTC-05:00)
Language:

Cosmos 2082 Rocket - Orbit

View from above orbital plane
View from above orbital plane
View from above satellite
View from above satellite

Ground track
Ground track

The orbit data is extracted from the following two-line orbital elements,

1 20625U 90046B   24205.92991633 -.00000121  00000-0 -38092-4 0  9991
2 20625  70.9994 104.7763 0012461 133.5564 226.6595 14.14847455764403
Epoch (UTC): 23 July 2024 22:19:04
Eccentricity: 0.0012461
inclination: 70.9994°
perigee height: 834 km
apogee height: 852 km
right ascension of ascending node: 104.7763°
argument of perigee: 133.5564°
revolutions per day: 14.14847455
mean anomaly at epoch: 226.6595°
orbit number at epoch: 76440

The dashed part of the orbit path shows where the satellite is in the earth's shadow,  

DLR